Location: Newark
(39.9267°N, 1.8017°W)
Time: 23:05:06
(UTC+00:00)

N. Korean satellite - Visible Passes

Search period start: 17 October 2019 00:00
Search period end: 27 October 2019 00:00
Orbit: 455 x 508 km, 97.2° (Epoch: 16 October)

Date Brightness Start Highest point End Pass type
(mag) Time Alt. Az. Time Alt. Az. Time Alt. Az.
17 Oct 10.1 18:16:19 10° SW 18:18:09 14° W 18:20:00 10° WNW visible
18 Oct 8.1 05:41:21 10° NNE 05:44:48 42° E 05:48:17 10° S visible
18 Oct 8.9 17:49:42 10° SSW 17:52:43 29° W 17:55:45 10° NW visible
19 Oct 9.6 05:16:39 10° NE 05:19:25 20° E 05:22:12 10° SE visible
21 Oct 9.9 18:07:56 10° SW 18:10:16 17° W 18:12:38 10° NW visible
22 Oct 8.6 05:33:38 10° NNE 05:36:59 34° E 05:40:21 10° SSE visible
22 Oct 8.3 17:41:39 10° SSW 17:44:50 37° W 17:48:04 10° NNW visible
23 Oct 10.0 05:09:08 10° NE 05:11:34 17° E 05:14:00 10° SE visible
24 Oct 10.5 18:27:20 10° W 18:27:51 10° W 18:28:22 10° W visible
25 Oct 7.3 05:50:51 10° NNE 05:54:29 60° E 05:58:08 10° S visible
25 Oct 9.5 17:59:38 10° SSW 18:02:21 22° W 18:05:05 10° NW visible
26 Oct 9.0 05:25:55 10° NE 05:29:07 27° E 05:32:19 10° SSE visible
